When you browse on this site, cookies collect data to enhance your experience and personalize the content and advertising you see.
Visit our Privacy Policy to learn more. By continuing to use the site, you agree to this use of cookies and data.
  • In Czech Republic
  • List of Countries
  • For 7 days
  • Water Temperature
  • Satellite Maps
  • Weather Map
  • Weather Widgets
  • user-avatar
    Login

    Hourly Weather Tirana

    Today, 15 December, Saturday

    Time Temperature Precipitation Wind Pressure Humidity
    00:00 +9°C° 0.3 mm 6 mps 750 mmHg 80%
    01:00 +8°C° 0 mm 5 mps 751 mmHg 83%
    02:00 +8°C° 0.3 mm 5 mps 751 mmHg 82%
    03:00 +9°C° 0.3 mm 5 mps 751 mmHg 81%
    04:00 +9°C° 0.3 mm 6 mps 750 mmHg 80%
    05:00 +9°C° 0.3 mm 6 mps 750 mmHg 79%
    06:00 +9°C° 0.3 mm 6 mps 750 mmHg 79%
    07:00 +9°C° 0.3 mm 6 mps 750 mmHg 79%
    08:00 +10°C° 0.5 mm 6 mps 750 mmHg 77%
    09:00 +11°C° 0.5 mm 6 mps 750 mmHg 74%
    10:00 +13°C° 0.5 mm 6 mps 750 mmHg 71%
    11:00 +14°C° 0.9 mm 6 mps 750 mmHg 69%
    12:00 +14°C° 0.9 mm 6 mps 750 mmHg 68%
    13:00 +15°C° 0.9 mm 6 mps 750 mmHg 66%
    14:00 +14°C° 1.4 mm 6 mps 750 mmHg 71%
    15:00 +13°C° 1.4 mm 6 mps 750 mmHg 76%
    16:00 +12°C° 1.4 mm 5 mps 750 mmHg 80%
    17:00 +12°C° 2.8 mm 5 mps 750 mmHg 83%
    18:00 +12°C° 2.8 mm 5 mps 750 mmHg 85%
    19:00 +10°C° 2.8 mm 6 mps 750 mmHg 87%
    20:00 +10°C° 2.3 mm 5 mps 751 mmHg 89%
    21:00 +9°C° 2.3 mm 5 mps 751 mmHg 92%
    22:00 +9°C° 2.3 mm 5 mps 751 mmHg 94%
    23:00 +9°C° 1 mm 5 mps 751 mmHg 94%

    Tomorrow, 16 December, Sunday

    Time Temperature Precipitation Wind Pressure Humidity
    00:00 +9°C° 1 mm 5 mps 752 mmHg 95%
    01:00 +8°C° 1 mm 4 mps 752 mmHg 96%
    02:00 +8°C° 0.2 mm 4 mps 752 mmHg 95%
    03:00 +8°C° 0.2 mm 4 mps 752 mmHg 94%
    04:00 +8°C° 0.2 mm 4 mps 752 mmHg 93%
    05:00 +8°C° 0 mm 4 mps 753 mmHg 91%
    06:00 +8°C° 0 mm 4 mps 753 mmHg 90%
    07:00 +7°C° 0 mm 4 mps 753 mmHg 88%
    08:00 +8°C° 0 mm 4 mps 754 mmHg 83%
    09:00 +8°C° 0 mm 4 mps 754 mmHg 77%
    10:00 +10°C° 0 mm 4 mps 755 mmHg 72%
    11:00 +10°C° 0 mm 4 mps 754 mmHg 69%
    12:00 +10°C° 0 mm 4 mps 754 mmHg 65%
    13:00 +10°C° 0 mm 4 mps 754 mmHg 62%
    14:00 +10°C° 0 mm 4 mps 755 mmHg 65%
    15:00 +8°C° 0 mm 4 mps 755 mmHg 69%
    16:00 +7°C° 0 mm 4 mps 755 mmHg 72%
    17:00 +8°C° 0 mm 3 mps 756 mmHg 75%
    18:00 +7°C° 0 mm 3 mps 756 mmHg 77%
    19:00 +6°C° 0 mm 2 mps 756 mmHg 79%
    20:00 +6°C° 0 mm 2 mps 757 mmHg 79%
    21:00 +6°C° 0 mm 2 mps 757 mmHg 79%
    22:00 +6°C° 0 mm 2 mps 757 mmHg 78%
    23:00 +6°C° 0 mm 2 mps 757 mmHg 77%

    Day after tomorrow, 17 December, Monday

    Time Temperature Precipitation Wind Pressure Humidity
    00:00 +6°C° 0 mm 2 mps 756 mmHg 76%
    01:00 +6°C° 0 mm 2 mps 756 mmHg 75%
    02:00 +6°C° 0 mm 2 mps 756 mmHg 72%
    03:00 +7°C° 0 mm 2 mps 755 mmHg 70%
    04:00 +7°C° 0 mm 2 mps 755 mmHg 68%
    05:00 +7°C° 0.1 mm 2 mps 755 mmHg 67%
    06:00 +7°C° 0.1 mm 3 mps 755 mmHg 66%
    07:00 +7°C° 0.1 mm 3 mps 755 mmHg 65%
    08:00 +8°C° 0.1 mm 3 mps 755 mmHg 62%
    09:00 +9°C° 0.1 mm 3 mps 754 mmHg 59%
    10:00 +10°C° 0.1 mm 4 mps 754 mmHg 56%
    11:00 +10°C° 0.1 mm 4 mps 754 mmHg 59%
    12:00 +8°C° 0.1 mm 5 mps 753 mmHg 62%
    13:00 +8°C° 0.1 mm 5 mps 753 mmHg 65%
    14:00 +8°C° 0.6 mm 5 mps 752 mmHg 68%
    15:00 +8°C° 0.6 mm 6 mps 752 mmHg 72%
    16:00 +8°C° 0.6 mm 6 mps 751 mmHg 75%
    17:00 +8°C° 1.2 mm 6 mps 751 mmHg 77%
    18:00 +7°C° 1.2 mm 5 mps 751 mmHg 80%
    19:00 +7°C° 1.2 mm 5 mps 751 mmHg 82%
    20:00 +7°C° 1.2 mm 5 mps 751 mmHg 83%
    21:00 +7°C° 1.2 mm 5 mps 751 mmHg 85%
    22:00 +7°C° 1.2 mm 5 mps 751 mmHg 86%
    23:00 +7°C° 1.1 mm 5 mps 752 mmHg 85%

    18 December, Tuesday

    Time Temperature Precipitation Wind Pressure Humidity
    00:00 +7°C° 1.1 mm 6 mps 752 mmHg 84%
    01:00 +5°C° 1.1 mm 6 mps 752 mmHg 84%
    02:00 +5°C° 1 mm 6 mps 752 mmHg 83%
    03:00 +5°C° 1 mm 6 mps 752 mmHg 82%
    04:00 +4°C° 1 mm 7 mps 752 mmHg 81%
    05:00 +4°C° 0.4 mm 7 mps 753 mmHg 80%
    06:00 +4°C° 0.4 mm 7 mps 753 mmHg 79%
    07:00 +4°C° 0.4 mm 7 mps 754 mmHg 79%
    08:00 +4°C° 0.1 mm 7 mps 754 mmHg 77%
    09:00 +5°C° 0.1 mm 7 mps 755 mmHg 75%
    10:00 +5°C° 0.1 mm 7 mps 755 mmHg 73%
    11:00 +7°C° 0 mm 6 mps 755 mmHg 72%
    12:00 +7°C° 0 mm 6 mps 755 mmHg 71%
    13:00 +8°C° 0 mm 6 mps 755 mmHg 70%
    14:00 +7°C° 0 mm 6 mps 755 mmHg 72%
    15:00 +7°C° 0 mm 6 mps 756 mmHg 74%
    16:00 +5°C° 0 mm 6 mps 756 mmHg 75%
    17:00 +5°C° 0 mm 6 mps 757 mmHg 76%
    18:00 +5°C° 0 mm 5 mps 757 mmHg 77%
    19:00 +3°C° 0 mm 5 mps 758 mmHg 78%
    20:00 +3°C° 0 mm 5 mps 758 mmHg 77%
    21:00 +2°C° 0 mm 5 mps 758 mmHg 77%
    22:00 +3°C° 0 mm 4 mps 758 mmHg 76%
    23:00 +3°C° 0 mm 4 mps 758 mmHg 76%

    19 December, Wednesday

    Time Temperature Precipitation Wind Pressure Humidity
    00:00 +1°C° 0 mm 4 mps 758 mmHg 75%
    01:00 +1°C° 0 mm 4 mps 758 mmHg 75%
    02:00 +2°C° 0 mm 3 mps 759 mmHg 74%
    03:00 +2°C° 0 mm 3 mps 759 mmHg 74%
    04:00 +2°C° 0 mm 3 mps 759 mmHg 73%
    05:00 +2°C° 0 mm 3 mps 759 mmHg 73%
    06:00 +3°C° 0 mm 2 mps 759 mmHg 72%
    07:00 +3°C° 0 mm 2 mps 759 mmHg 71%
    08:00 +5°C° 0 mm 2 mps 759 mmHg 67%
    09:00 +6°C° 0 mm 2 mps 759 mmHg 64%
    10:00 +8°C° 0 mm 2 mps 759 mmHg 60%
    11:00 +10°C° 0 mm 1 mps 759 mmHg 58%
    12:00 +10°C° 0 mm 1 mps 759 mmHg 55%
    13:00 +11°C° 0 mm 1 mps 758 mmHg 53%
    14:00 +10°C° 0 mm 1 mps 758 mmHg 57%
    15:00 +9°C° 0 mm 1 mps 758 mmHg 60%
    16:00 +8°C° 0 mm 1 mps 759 mmHg 63%
    17:00 +7°C° 0 mm 1 mps 759 mmHg 63%
    18:00 +6°C° 0 mm 1 mps 759 mmHg 63%
    19:00 +5°C° 0 mm 2 mps 759 mmHg 63%
    20:00 +5°C° 0 mm 2 mps 759 mmHg 63%
    21:00 +4°C° 0 mm 2 mps 760 mmHg 64%
    22:00 +4°C° 0 mm 2 mps 760 mmHg 64%
    23:00 +5°C° 0 mm 2 mps 759 mmHg 64%

    20 December, Thursday

    Time Temperature Precipitation Wind Pressure Humidity
    00:00 +5°C° 0 mm 2 mps 759 mmHg 64%
    01:00 +4°C° 0 mm 3 mps 759 mmHg 64%
    02:00 +4°C° 0 mm 3 mps 759 mmHg 63%
    03:00 +4°C° 0 mm 3 mps 759 mmHg 62%
    04:00 +4°C° 0 mm 3 mps 759 mmHg 61%
    05:00 +4°C° 0 mm 3 mps 759 mmHg 59%
    06:00 +3°C° 0 mm 3 mps 759 mmHg 57%
    07:00 +3°C° 0 mm 3 mps 759 mmHg 55%
    08:00 +5°C° 0 mm 4 mps 759 mmHg 54%
    09:00 +7°C° 0 mm 4 mps 759 mmHg 53%
    10:00 +10°C° 0 mm 4 mps 759 mmHg 53%
    11:00 +10°C° 0 mm 4 mps 759 mmHg 51%
    12:00 +11°C° 0 mm 4 mps 758 mmHg 49%
    13:00 +12°C° 0 mm 5 mps 758 mmHg 48%
    14:00 +10°C° 0.1 mm 5 mps 757 mmHg 52%
    15:00 +9°C° 0.1 mm 5 mps 757 mmHg 57%
    16:00 +8°C° 0.1 mm 6 mps 757 mmHg 62%
    17:00 +7°C° 0.2 mm 5 mps 757 mmHg 63%
    18:00 +7°C° 0.2 mm 5 mps 757 mmHg 65%
    19:00 +7°C° 0.2 mm 5 mps 757 mmHg 66%
    20:00 +7°C° 0.5 mm 5 mps 757 mmHg 68%
    21:00 +7°C° 0.5 mm 5 mps 757 mmHg 69%
    22:00 +7°C° 0.5 mm 5 mps 757 mmHg 71%
    23:00 +7°C° 0.8 mm 4 mps 757 mmHg 74%
    Show more